STARLINK-34557

Last updated on Sat Aug 02 2025 00:02:05 GMT+0000 (Coordinated Universal Time)

1 64726U 25144C 25213.22994406 .00046789 00000+0 11720-2 0 9996 2 64726 53.1601 126.8221 0001095 72.4736 287.6388 15.39634100 5930
UTC large
Height (km)
Speed (km/s)
/
Latitude / Longitude
Inclination (degrees)
Orbital Period (minutes)
Azimuth
Elevation
Range (km)
Doppler Factor

Next 0 passes for location: London (51.5072 / 0.1276)

Sorry there are no passes over London.